Location: Gaast
(52.9002°N, 5.8891°E)
Time: 15:31:46
(UTC+00:00)

ACS3 Solar Sail - Visible Passes

Search period start: 20 January 2026 00:00
Search period end: 30 January 2026 00:00
Orbit: 899 x 978 km, 97.2° (Epoch: 19 January)

Date Brightness Start Highest point End Pass type
(mag) Time Alt. Az. Time Alt. Az. Time Alt. Az.
20 Jan 4.4 02:17:49 10° NNE 02:17:55 10° NNE 02:17:55 10° NNE visible
20 Jan 4.0 04:01:21 10° N 04:01:47 12° N 04:01:47 12° N visible
21 Jan 4.3 02:31:43 10° N 02:31:59 11° N 02:31:59 11° N visible
21 Jan 4.0 04:15:30 10° N 04:15:50 11° NNW 04:15:50 11° NNW visible
22 Jan 4.2 02:45:38 10° N 02:46:02 12° N 02:46:02 12° N visible
22 Jan 4.0 04:29:44 10° NNW 04:29:54 10° NNW 04:29:54 10° NNW visible
23 Jan 4.2 02:59:34 10° N 03:00:06 13° N 03:00:06 13° N visible
24 Jan 4.1 03:13:33 10° N 03:14:10 13° N 03:14:10 13° N visible
25 Jan 4.0 03:27:33 10° N 03:28:14 13° N 03:28:14 13° N visible
26 Jan 4.5 01:58:17 10° NNE 01:58:27 11° NNE 01:58:27 11° NNE visible
26 Jan 4.0 03:41:36 10° N 03:42:18 13° N 03:42:18 13° N visible
27 Jan 4.3 02:12:08 10° NNE 02:12:31 12° NNE 02:12:31 12° NNE visible
27 Jan 3.9 03:55:41 10° N 03:56:23 13° N 03:56:23 13° N visible
28 Jan 4.2 02:26:02 10° N 02:26:35 13° N 02:26:35 13° N visible
28 Jan 3.9 04:09:51 10° N 04:10:28 12° NNW 04:10:28 12° NNW visible
29 Jan 4.1 02:39:57 10° N 02:40:40 14° N 02:40:40 14° N visible
29 Jan 3.9 04:24:06 10° NNW 04:24:32 11° NNW 04:24:32 11° NNW visible
